GW4050 Weather Reports


Display with metric or nautical units.
time (UTC)temp
F
wind
direction
speed
MPH
gust
MPH
rain 1hr
in
rain 24hr
in
rain mn
in
humidity
%
barometer
mb
20260505170319 53 309 1.0 3.0 0.00 0.00 0.00 67 1015.6
20260505165316 54 289 2.0 4.0 0.00 0.00 0.00 65 1015.6
20260505164339 54 287 1.0 3.0 0.00 0.00 0.00 65 1015.7
20260505163419 54 283 3.0 6.0 0.00 0.00 0.00 65 1015.6
20260505162321 54 269 0.0 3.0 0.00 0.00 0.00 68 1015.7
20260505161324 55 348 2.0 6.0 0.00 0.00 0.00 67 1015.7
20260505160339 54 268 2.0 4.0 0.00 0.00 0.00 66 1015.7
20260505153317 54 265 0.0 3.0 0.00 0.00 0.00 66 1015.8
20260505152320 53 277 1.0 3.0 0.00 0.00 0.00 68 1015.7
20260505151318 53 4 2.0 5.0 0.00 0.00 0.00 69 1015.7
20260505150318 53 341 3.0 7.0 0.00 0.00 0.00 70 1015.9
20260505140318 54 279 2.0 4.0 0.00 0.00 0.00 65 1015.9
20260505124340 53 310 2.0 4.0 0.00 0.00 0.00 70 1016.0
20260505123357 53 295 3.0 6.0 0.00 0.00 0.00 71 1016.1
20260505122317 53 339 4.0 8.0 0.00 0.00 0.00 75 1016.0
20260505121317 53 333 2.0 5.0 0.00 0.00 0.00 77 1016.1
20260505120318 52 324 2.0 6.0 0.00 0.00 0.00 75 1016.1
20260505115318 53 290 3.0 5.0 0.00 0.00 0.00 72 1016.0
20260505114318 53 324 3.0 6.0 0.00 0.00 0.00 72 1016.0
20260505113318 52 294 3.0 6.0 0.00 0.00 0.00 73 1016.0
20260505112318 53 294 2.0 5.0 0.00 0.00 0.00 74 1016.0
20260505111318 52 327 1.0 3.0 0.00 0.00 0.00 74 1015.9
20260505110319 51 306 1.0 3.0 0.00 0.00 0.00 75 1015.9
20260505101319 50 291 2.0 7.0 0.00 0.00 0.00 85 1015.9
20260505100337 50 278 3.0 7.0 0.00 0.00 0.00 84 1015.8
20260505095316 51 261 2.0 5.0 0.00 0.00 0.00 81 1015.7
20260505094317 52 334 3.0 8.0 0.00 0.00 0.00 82 1015.7
20260505093317 52 318 3.0 6.0 0.00 0.00 0.00 85 1015.6
20260505092320 52 24 2.0 3.0 0.00 0.00 0.00 88 1015.7
20260505091320 51 281 1.0 2.0 0.00 0.00 0.00 91 1015.7
20260505090317 50 312 0.0 2.0 0.00 0.00 0.00 93 1015.8
20260505085317 50 0.0 0.0 0.00 0.00 0.00 94 1015.8
20260505084318 49 0.0 0.0 0.00 0.00 0.00 95 1015.9
20260505083317 48 0.0 0.0 0.00 0.00 0.00 95 1015.9
20260505082318 46 0.0 0.0 0.00 0.00 0.00 95 1015.9
20260505081318 46 0.0 0.0 0.00 0.00 0.00 96 1016.0
20260505080318 45 0.0 0.0 0.00 0.00 0.00 96 1015.9
20260505075318 44 0.0 0.0 0.00 0.00 0.00 96 1015.9
20260505074319 44 82 0.0 2.0 0.00 0.00 0.00 96 1016.0
20260505073359 44 75 0.0 1.0 0.00 0.00 0.00 96 1015.9
20260505072319 43 67 0.0 2.0 0.00 0.00 0.00 96 1016.0
20260505071319 43 0.0 0.0 0.00 0.00 0.00 96 1015.9
20260505070316 43 0.0 0.0 0.00 0.00 0.00 96 1015.9
20260505065339 42 0.0 0.0 0.00 0.00 0.00 96 1016.0
20260505064319 42 0.0 0.0 0.00 0.00 0.00 96 1016.0
20260505063340 41 0.0 0.0 0.00 0.00 0.00 96 1016.0
20260505062320 41 67 0.0 2.0 0.00 0.00 0.00 96 1016.0
20260505061317 41 52 0.0 1.0 0.00 0.00 0.00 96 1016.1
20260505060317 41 134 0.0 2.0 0.00 0.00 0.00 96 1016.0
20260505055317 41 99 1.0 2.0 0.00 0.00 0.00 96 1016.1
20260505054318 41 0.0 0.0 0.00 0.00 0.00 96 1016.0
20260505053318 41 0.0 0.0 0.00 0.00 0.00 96 1015.9
20260505052318 40 115 0.0 1.0 0.00 0.00 0.00 96 1015.9
20260505051358 40 0.0 0.0 0.00 0.00 0.00 96 1015.8
20260505050318 40 0.0 0.0 0.00 0.00 0.00 96 1015.7
20260505041319 38 0.0 0.0 0.00 0.00 0.00 95 1015.6
20260505040319 38 0.0 0.0 0.00 0.00 0.00 95 1015.5
20260505035319 38 0.0 0.0 0.00 0.00 0.00 95 1015.6
20260505034319 38 0.0 0.0 0.00 0.00 0.00 95 1015.6
20260505033316 38 0.0 0.0 0.00 0.00 0.00 95 1015.6
20260505032317 38 0.0 0.0 0.00 0.00 0.00 95 1015.6
20260505031320 39 0.0 0.0 0.00 0.00 0.00 95 1015.7
20260505030320 39 0.0 0.0 0.00 0.00 0.00 95 1015.7
20260505025317 40 0.0 0.0 0.00 0.00 0.00 95 1015.7
20260505024317 40 200 0.0 2.0 0.00 0.00 0.00 95 1015.7
20260505023317 40 0.0 0.0 0.00 0.00 0.00 95 1015.8
20260505022318 40 0.0 0.0 0.00 0.00 0.00 95 1015.9
20260505021338 40 0.0 0.0 0.00 0.00 0.00 94 1015.9
20260505020318 41 0.0 0.0 0.00 0.00 0.00 94 1016.0
20260505015318 40 0.0 0.0 0.00 0.00 0.00 94 1016.1
20260505014338 41 0.0 0.0 0.00 0.00 0.00 94 1016.2
20260505013318 42 168 0.0 1.0 0.00 0.00 0.00 94 1016.3
20260505012319 42 0.0 0.0 0.00 0.00 0.00 94 1016.3
20260505011319 43 0.0 0.0 0.00 0.00 0.00 94 1016.3
20260505010336 43 0.0 0.0 0.00 0.00 0.00 94 1016.3
20260505005340 43 198 0.0 1.0 0.00 0.00 0.00 94 1016.3
20260505004320 44 0.0 0.0 0.00 0.00 0.00 94 1016.4
20260505003317 44 0.0 0.0 0.00 0.00 0.00 93 1016.4
20260505002337 44 0.0 0.0 0.00 0.00 0.00 93 1016.5
20260505001317 44 0.0 0.0 0.00 0.00 0.00 93 1016.6
20260505000317 44 0.0 0.0 0.00 0.00 0.00 93 1016.6
20260504235318 44 0.0 0.0 0.00 0.00 0.00 93 1016.6
20260504234318 45 0.0 0.0 0.00 0.00 0.00 93 1016.7
20260504233318 45 0.0 0.0 0.00 0.00 0.00 93 1016.7
20260504232318 46 0.0 0.0 0.00 0.00 0.00 92 1016.8
20260504231318 46 0.0 0.0 0.00 0.00 0.00 92 1016.7
20260504230319 46 0.0 0.0 0.00 0.00 0.00 92 1016.8
20260504225319 47 0.0 0.0 0.00 0.00 0.00 92 1016.8
20260504224316 47 0.0 0.0 0.00 0.00 0.00 92 1016.8
20260504223319 48 0.0 0.0 0.00 0.00 0.00 92 1016.9
20260504222319 48 0.0 0.0 0.00 0.00 0.00 92 1016.9
20260504221339 48 0.0 0.0 0.00 0.00 0.00 92 1017.0
20260504220320 48 0.0 0.0 0.00 0.00 0.00 92 1017.0
20260504215319 48 0.0 0.0 0.00 0.00 0.00 91 1017.1
20260504214317 48 0.0 0.0 0.00 0.00 0.00 91 1017.1
20260504213340 48 0.0 0.0 0.00 0.00 0.00 91 1017.1
20260504212340 48 0.0 0.0 0.00 0.00 0.00 91 1017.2
20260504211320 48 0.0 0.0 0.00 0.00 0.00 91 1017.2
20260504210338 48 0.0 0.0 0.00 0.00 0.00 90 1017.1
20260504205317 48 0.0 0.0 0.00 0.00 0.00 90 1017.2
20260504204438 48 0.0 0.0 0.00 0.00 0.00 90 1017.2
20260504203318 48 0.0 0.0 0.00 0.00 0.00 90 1017.2
20260504202318 48 276 0.0 1.0 0.00 0.00 0.00 89 1017.1
20260504201318 48 0.0 0.0 0.00 0.00 0.00 89 1017.1
20260504200318 48 0.0 0.0 0.00 0.00 0.00 88 1017.0
20260504195418 49 0.0 0.0 0.00 0.00 0.00 88 1017.0
20260504194319 49 0.0 0.0 0.00 0.00 0.00 87 1016.9
20260504193316 49 0.0 0.0 0.00 0.00 0.00 86 1016.8
20260504192400 50 294 0.0 1.0 0.00 0.00 0.00 85 1016.8
20260504191319 51 272 0.0 2.0 0.00 0.00 0.00 83 1016.8
20260504190319 52 264 1.0 3.0 0.00 0.00 0.00 81 1016.8
20260504185320 52 19 0.0 2.0 0.00 0.00 0.00 80 1016.8
20260504184337 53 2 2.0 5.0 0.00 0.00 0.00 80 1016.8
20260504183317 53 86 0.0 2.0 0.00 0.00 0.00 81 1016.7
20260504182320 53 2 1.0 3.0 0.00 0.00 0.00 81 1016.6
20260504181318 53 346 1.0 3.0 0.00 0.00 0.00 80 1016.5
20260504180317 53 300 1.0 3.0 0.00 0.00 0.00 79 1016.5
20260504175318 53 300 1.0 3.0 0.00 0.00 0.00 78 1016.5
20260504174318 54 286 1.0 2.0 0.00 0.00 0.00 78 1016.6
20260504173318 55 311 1.0 2.0 0.00 0.00 0.00 76 1016.6
20260504172318 55 279 2.0 6.0 0.00 0.00 0.00 77 1016.6
20260504171318 56 286 3.0 6.0 0.00 0.00 0.00 76 1016.5